{"data":{"norad_id":68239,"intl_designator":"2026-054H","name":"STARLINK-37096","alt_names":[],"object_type":"PAYLOAD","status":"ACTIVE","operator":null,"country":"US","launch_date":"2026-03-17","launch_site_code":"AFETR","launch_vehicle":null,"mission":null,"orbit_class":"UNKNOWN","rcs_meters":null,"size_class":null,"mass_kg":null,"dimensions":null,"purposes":["comms"],"wikipedia_slug":null,"has_3d_model":false,"image_url":null,"decayed_at":null,"tle_current":{"epoch":"2026-09-19T22:07:17.332032Z","epoch_age_seconds":101770,"freshness":"FRESH","line1":"1 68239U 26054H   26262.92172838  .00011842  00000+0  36104-3 0  9995","line2":"2 68239  53.1565 104.3987 0001236  93.7282 266.3862 15.34402748 28876","mean_motion":15.34402748,"eccentricity":0.0001236,"inclination_deg":53.1565,"raan_deg":104.3987,"arg_perigee_deg":93.7282,"mean_anomaly_deg":266.3862,"bstar":0.00036104,"rev_number":2887,"period_min":93.847590007053,"perigee_km":461.84954574001,"apogee_km":463.54059942835,"semimajor_km":6840.8320725842,"source":"CELESTRAK","updated_at":"2026-09-20T09:00:43.840483Z"}}}